Location: *
(55.5817°S, 142.4781°W)
Time: 22:29:09
(UTC+00:00)

ARIANE 6 FM1 Upper Stage - Visible Passes

Search period start: 20 June 2025 00:00
Search period end: 30 June 2025 00:00
Orbit: 530 x 611 km, 62.0° (Epoch: 20 June)

Date Brightness Start Highest point End Pass type
(mag) Time Alt. Az. Time Alt. Az. Time Alt. Az.
20 Jun 4.6 14:01:45 29° ESE 14:01:45 29° ESE 14:04:13 10° E visible
20 Jun 2.8 15:37:52 40° WSW 15:39:22 70° NW 15:43:42 10° NE visible
21 Jun 4.6 14:03:34 31° E 14:03:34 31° E 14:06:03 10° E visible
21 Jun 3.0 15:39:41 39° W 15:40:59 53° NW 15:45:13 10° NNE visible
22 Jun 4.5 14:05:25 31° E 14:05:25 31° E 14:07:50 10° ENE visible
22 Jun 3.4 15:41:33 35° W 15:42:33 40° NW 15:46:37 10° NNE visible
23 Jun 4.5 14:07:19 30° ENE 14:07:19 30° ENE 14:09:35 10° ENE visible
23 Jun 3.7 15:43:27 29° WNW 15:44:05 31° NW 15:47:53 10° N visible
24 Jun 4.7 14:09:18 26° NE 14:09:18 26° NE 14:11:16 10° NE visible
24 Jun 4.1 15:45:26 23° WNW 15:45:33 23° WNW 15:49:00 10° N visible
25 Jun 4.9 14:11:20 21° NE 14:11:20 21° NE 14:12:52 10° NE visible
25 Jun 4.5 15:47:28 17° NW 15:47:28 17° NW 15:49:51 10° NNW visible
26 Jun 5.2 14:13:27 16° NNE 14:13:27 16° NNE 14:14:23 10° NE visible
26 Jun 5.0 15:49:35 11° NW 15:49:35 11° NW 15:50:15 10° NW visible
27 Jun 5.5 14:15:38 11° NNE 14:15:38 11° NNE 14:15:47 10° NNE visible
